When you browse on this site, cookies collect data to enhance your experience and personalize the content and advertising you see.
Visit our Privacy Policy to learn more. By continuing to use the site, you agree to this use of cookies and data.
  • In Latvia
  • List of Countries
  • For 7 days
  • Water Temperature
  • Weather Map
  • Weather Widgets
  • user-avatar
    Login

    Hourly Weather Naftalan

    Today, 12 November, Tuesday

    Time Temperature Precipitation Wind Pressure Humidity
    00:00 +15°C° 0 mm 1 mps 769 mmHg 81%
    01:00 +15°C° 0 mm 1 mps 770 mmHg 82%
    02:00 +14°C° 0 mm 1 mps 770 mmHg 83%
    03:00 +14°C° 0 mm 1 mps 770 mmHg 84%
    04:00 +14°C° 0 mm 1 mps 770 mmHg 85%
    05:00 +13°C° 0 mm 1 mps 770 mmHg 85%
    06:00 +13°C° 0 mm 2 mps 771 mmHg 86%
    07:00 +14°C° 0 mm 1 mps 771 mmHg 81%
    08:00 +15°C° 0 mm 1 mps 771 mmHg 75%
    09:00 +18°C° 0 mm 1 mps 771 mmHg 70%
    10:00 +19°C° 0 mm 1 mps 771 mmHg 65%
    11:00 +19°C° 0 mm 1 mps 771 mmHg 61%
    12:00 +18°C° 0 mm 0 mps 770 mmHg 56%
    13:00 +20°C° 0 mm 1 mps 770 mmHg 57%
    14:00 +20°C° 0 mm 1 mps 770 mmHg 57%
    15:00 +20°C° 0 mm 2 mps 770 mmHg 58%
    16:00 +19°C° 0 mm 2 mps 770 mmHg 62%
    17:00 +18°C° 0 mm 2 mps 770 mmHg 67%
    18:00 +17°C° 0 mm 2 mps 771 mmHg 72%
    19:00 +17°C° 0 mm 2 mps 771 mmHg 73%
    20:00 +16°C° 0 mm 2 mps 771 mmHg 74%
    21:00 +16°C° 0 mm 1 mps 771 mmHg 75%
    22:00 +16°C° 0 mm 1 mps 771 mmHg 77%
    23:00 +15°C° 0 mm 1 mps 771 mmHg 79%

    Tomorrow, 13 November, Wednesday

    Time Temperature Precipitation Wind Pressure Humidity
    00:00 +15°C° 0 mm 1 mps 771 mmHg 80%
    01:00 +14°C° 0 mm 1 mps 770 mmHg 81%
    02:00 +14°C° 0 mm 1 mps 770 mmHg 82%
    03:00 +14°C° 0 mm 1 mps 770 mmHg 83%
    04:00 +14°C° 0 mm 1 mps 770 mmHg 83%
    05:00 +13°C° 0 mm 1 mps 770 mmHg 83%
    06:00 +13°C° 0 mm 1 mps 771 mmHg 83%
    07:00 +14°C° 0 mm 1 mps 771 mmHg 77%
    08:00 +15°C° 0 mm 2 mps 771 mmHg 72%
    09:00 +16°C° 0 mm 2 mps 771 mmHg 66%
    10:00 +17°C° 0 mm 2 mps 771 mmHg 62%
    11:00 +18°C° 0 mm 2 mps 770 mmHg 59%
    12:00 +20°C° 0 mm 1 mps 770 mmHg 55%
    13:00 +19°C° 0 mm 2 mps 770 mmHg 56%
    14:00 +19°C° 0 mm 2 mps 770 mmHg 57%
    15:00 +19°C° 0 mm 3 mps 770 mmHg 58%
    16:00 +18°C° 0 mm 3 mps 770 mmHg 63%
    17:00 +17°C° 0 mm 3 mps 770 mmHg 68%
    18:00 +16°C° 0 mm 3 mps 770 mmHg 73%
    19:00 +16°C° 0 mm 3 mps 770 mmHg 73%
    20:00 +16°C° 0 mm 3 mps 770 mmHg 74%
    21:00 +16°C° 0 mm 3 mps 771 mmHg 74%
    22:00 +15°C° 0 mm 2 mps 770 mmHg 75%
    23:00 +15°C° 0 mm 2 mps 770 mmHg 77%

    Day after tomorrow, 14 November, Thursday

    Time Temperature Precipitation Wind Pressure Humidity
    00:00 +15°C° 0 mm 2 mps 770 mmHg 78%
    01:00 +15°C° 0 mm 2 mps 770 mmHg 78%
    02:00 +15°C° 0 mm 2 mps 770 mmHg 79%
    03:00 +15°C° 0 mm 2 mps 770 mmHg 79%
    04:00 +13°C° 0 mm 3 mps 770 mmHg 80%
    05:00 +13°C° 0 mm 3 mps 770 mmHg 81%
    06:00 +13°C° 0 mm 3 mps 770 mmHg 81%
    07:00 +14°C° 0 mm 4 mps 770 mmHg 77%
    08:00 +15°C° 0 mm 4 mps 770 mmHg 74%
    09:00 +15°C° 0 mm 5 mps 771 mmHg 70%
    10:00 +16°C° 0.1 mm 6 mps 770 mmHg 68%
    11:00 +16°C° 0.1 mm 6 mps 770 mmHg 66%
    12:00 +16°C° 0.1 mm 7 mps 770 mmHg 65%
    13:00 +16°C° 0 mm 8 mps 770 mmHg 64%
    14:00 +16°C° 0 mm 8 mps 770 mmHg 63%
    15:00 +16°C° 0 mm 9 mps 770 mmHg 62%
    16:00 +14°C° 0 mm 10 mps 770 mmHg 64%
    17:00 +13°C° 0 mm 10 mps 771 mmHg 67%
    18:00 +12°C° 0 mm 11 mps 771 mmHg 69%
    19:00 +12°C° 0 mm 10 mps 772 mmHg 68%
    20:00 +12°C° 0 mm 10 mps 772 mmHg 67%
    21:00 +11°C° 0 mm 10 mps 772 mmHg 65%
    22:00 +11°C° 0 mm 9 mps 772 mmHg 65%
    23:00 +11°C° 0 mm 8 mps 772 mmHg 65%

    15 November, Friday

    Time Temperature Precipitation Wind Pressure Humidity
    00:00 +11°C° 0 mm 8 mps 773 mmHg 65%
    01:00 +11°C° 0 mm 6 mps 772 mmHg 66%
    02:00 +10°C° 0 mm 5 mps 772 mmHg 66%
    03:00 +11°C° 0 mm 3 mps 772 mmHg 67%
    04:00 +11°C° 0 mm 4 mps 772 mmHg 66%
    05:00 +11°C° 0 mm 4 mps 772 mmHg 66%
    06:00 +11°C° 0 mm 4 mps 772 mmHg 65%
    07:00 +10°C° 0.1 mm 5 mps 772 mmHg 66%
    08:00 +11°C° 0.1 mm 6 mps 772 mmHg 66%
    09:00 +11°C° 0.1 mm 7 mps 773 mmHg 67%
    10:00 +11°C° 0.1 mm 8 mps 772 mmHg 65%
    11:00 +11°C° 0.1 mm 8 mps 772 mmHg 63%
    12:00 +11°C° 0.1 mm 8 mps 772 mmHg 62%
    13:00 +11°C° 0 mm 8 mps 772 mmHg 62%
    14:00 +12°C° 0 mm 8 mps 772 mmHg 63%
    15:00 +12°C° 0 mm 7 mps 772 mmHg 63%
    16:00 +11°C° 0.1 mm 7 mps 772 mmHg 65%
    17:00 +10°C° 0.1 mm 6 mps 773 mmHg 66%
    18:00 +10°C° 0.1 mm 5 mps 773 mmHg 68%
    19:00 +10°C° 0.1 mm 5 mps 773 mmHg 68%
    20:00 +9°C° 0.1 mm 5 mps 773 mmHg 68%
    21:00 +9°C° 0.1 mm 5 mps 774 mmHg 68%
    22:00 +9°C° 0 mm 5 mps 773 mmHg 68%
    23:00 +10°C° 0 mm 4 mps 773 mmHg 68%

    16 November, Saturday

    Time Temperature Precipitation Wind Pressure Humidity
    00:00 +8°C° 0 mm 4 mps 773 mmHg 68%
    01:00 +8°C° 0.1 mm 4 mps 773 mmHg 68%
    02:00 +8°C° 0.1 mm 5 mps 773 mmHg 68%
    03:00 +8°C° 0.1 mm 5 mps 773 mmHg 67%
    04:00 +8°C° 0.1 mm 4 mps 773 mmHg 68%
    05:00 +8°C° 0.1 mm 4 mps 773 mmHg 70%
    06:00 +8°C° 0.1 mm 4 mps 774 mmHg 71%
    07:00 +10°C° 0.1 mm 4 mps 774 mmHg 66%
    08:00 +11°C° 0.1 mm 4 mps 774 mmHg 61%
    09:00 +11°C° 0.1 mm 3 mps 774 mmHg 56%
    10:00 +12°C° 0 mm 3 mps 774 mmHg 52%
    11:00 +13°C° 0 mm 3 mps 774 mmHg 49%
    12:00 +14°C° 0 mm 3 mps 774 mmHg 45%
    13:00 +14°C° 0 mm 3 mps 774 mmHg 46%
    14:00 +14°C° 0 mm 3 mps 774 mmHg 47%
    15:00 +13°C° 0 mm 4 mps 774 mmHg 47%
    16:00 +13°C° 0 mm 4 mps 774 mmHg 49%
    17:00 +13°C° 0 mm 4 mps 774 mmHg 51%
    18:00 +12°C° 0 mm 4 mps 775 mmHg 53%
    19:00 +12°C° 0 mm 3 mps 775 mmHg 53%
    20:00 +12°C° 0 mm 3 mps 775 mmHg 54%
    21:00 +12°C° 0 mm 3 mps 775 mmHg 54%
    22:00 +12°C° 0 mm 3 mps 775 mmHg 56%
    23:00 +12°C° 0 mm 2 mps 775 mmHg 58%

    17 November, Sunday

    Time Temperature Precipitation Wind Pressure Humidity
    00:00 +12°C° 0 mm 2 mps 775 mmHg 60%
    01:00 +12°C° 0.1 mm 2 mps 775 mmHg 64%
    02:00 +10°C° 0.1 mm 2 mps 774 mmHg 69%
    03:00 +10°C° 0.1 mm 3 mps 774 mmHg 73%
    04:00 +10°C° 0.1 mm 2 mps 774 mmHg 74%
    05:00 +10°C° 0.1 mm 2 mps 774 mmHg 75%
    06:00 +10°C° 0.1 mm 2 mps 774 mmHg 76%
    07:00 +12°C° 0 mm 2 mps 775 mmHg 72%
    08:00 +12°C° 0 mm 2 mps 775 mmHg 67%
    09:00 +12°C° 0 mm 3 mps 775 mmHg 63%
    10:00 +14°C° 0 mm 2 mps 775 mmHg 59%
    11:00 +14°C° 0 mm 2 mps 774 mmHg 56%
    12:00 +15°C° 0 mm 2 mps 774 mmHg 52%
    13:00 +15°C° 0 mm 2 mps 774 mmHg 53%
    14:00 +16°C° 0 mm 1 mps 773 mmHg 53%
    15:00 +16°C° 0 mm 1 mps 773 mmHg 53%
    16:00 +15°C° 0 mm 1 mps 773 mmHg 57%
    17:00 +15°C° 0 mm 1 mps 773 mmHg 60%
    18:00 +14°C° 0 mm 2 mps 773 mmHg 64%
    19:00 +14°C° 0 mm 1 mps 773 mmHg 65%
    20:00 +14°C° 0 mm 1 mps 773 mmHg 66%
    21:00 +14°C° 0 mm 1 mps 773 mmHg 66%
    22:00 +13°C° 0 mm 2 mps 773 mmHg 65%
    23:00 +13°C° 0 mm 2 mps 773 mmHg 64%
    Show more